Location: HF.RADOM.PL
(51.4000°N, 21.1600°E)
Time: 01:15:20
(UTC+01:00)

NOAA 18 - Visible Passes

Search period start: 18 January 2020 00:00
Search period end: 28 January 2020 00:00
Orbit: 841 x 860 km, 99.1° (Epoch: 17 January)

Date Brightness Start Highest point End Pass type
(mag) Time Alt. Az. Time Alt. Az. Time Alt. Az.
18 Jan 7.0 18:18:34 16° NNE 18:18:34 16° NNE 18:20:17 10° N visible
18 Jan 7.4 20:00:34 18° NNW 20:00:34 18° NNW 20:01:53 10° NNW visible
19 Jan 7.0 18:06:32 15° NNE 18:06:32 15° NNE 18:08:14 10° N visible
19 Jan 7.2 19:48:31 20° NNW 19:48:31 20° NNW 19:50:06 10° NNW visible
20 Jan 7.0 17:54:29 14° NNE 17:54:29 14° NNE 17:56:06 10° NNE visible
20 Jan 7.0 19:36:29 21° N 19:36:29 21° N 19:38:16 10° N visible
21 Jan 7.1 17:42:26 12° NE 17:42:26 12° NE 17:43:51 10° NNE visible
21 Jan 6.9 19:24:26 22° N 19:24:26 22° N 19:26:26 10° N visible
21 Jan 8.0 21:06:26 12° NW 21:06:26 12° NW 21:06:48 10° NW visible
22 Jan 7.1 17:30:23 11° NE 17:30:23 11° NE 17:31:14 10° NNE visible
22 Jan 6.8 19:12:23 23° N 19:12:23 23° N 19:14:35 10° N visible
22 Jan 7.8 20:54:23 14° NW 20:54:23 14° NW 20:55:12 10° NNW visible
23 Jan 6.7 19:00:20 23° NNE 19:00:20 23° NNE 19:02:41 10° N visible
23 Jan 7.6 20:42:20 16° NNW 20:42:20 16° NNW 20:43:32 10° NNW visible
24 Jan 6.7 18:48:17 23° NNE 18:48:17 23° NNE 18:50:47 10° N visible
24 Jan 7.4 20:30:17 19° NNW 20:30:17 19° NNW 20:31:50 10° NNW visible
25 Jan 6.7 18:36:14 22° NNE 18:36:14 22° NNE 18:38:49 10° N visible
25 Jan 7.2 20:18:14 22° NNW 20:18:14 22° NNW 20:20:07 10° NNW visible
26 Jan 6.7 18:24:11 20° NNE 18:24:11 20° NNE 18:26:51 10° N visible
26 Jan 7.0 20:06:10 25° NNW 20:06:10 25° NNW 20:08:21 10° NNW visible
27 Jan 6.7 18:12:07 18° NE 18:12:07 18° NE 18:14:50 10° N visible
27 Jan 6.8 19:54:07 27° NNW 19:54:07 27° NNW 19:56:34 10° NNW visible
